Printer-friendly version

IAU Minor Planet Center

Minor Planet Center

MPEC 2008-W34 : 2008 WD14

The following Minor Planet Electronic Circular may be linked-to from your own Web pages, but must not otherwise be redistributed electronically.


Read MPEC 2008-W33 Read MPEC 2008-W35


M.P.E.C. 2008-W34                                Issued 2008 Nov. 21, 16:12 UT

     The Minor Planet Electronic Circulars contain information on unusual
         minor planets and routine data on comets.  They are published
   on behalf of Commission 20 of the International Astronomical Union by the
          Minor Planet Center, Smithsonian Astrophysical Observatory,
                          Cambridge, MA 02138, U.S.A.

             Prepared using the Tamkin Foundation Computer Network

                              MPC@CFA.HARVARD.EDU
          URL http://www.cfa.harvard.edu/iau/mpc.html  ISSN 1523-6714

                                   2008 WD14

Observations:
     K08W14D* C2008 11 21.09428 21 45 07.16 -13 25 27.3          19.0 V EW034G96
     K08W14D  C2008 11 21.09986 21 45 11.59 -13 25 50.0          20.4 V EW034G96
     K08W14D  C2008 11 21.10552 21 45 16.09 -13 26 13.3          19.9 V EW034G96
     K08W14D  C2008 11 21.11111 21 45 20.55 -13 26 35.8          19.4 V EW034G96
     K08W14D  C2008 11 21.12113 21 45 28.62 -13 27 16.7                 EW034G96
     K08W14D  C2008 11 21.12155 21 45 28.97 -13 27 18.1                 EW034G96
     K08W14D  C2008 11 21.12197 21 45 29.31 -13 27 19.6          20.2 V EW034G96
     K08W14D  C2008 11 21.12238 21 45 29.61 -13 27 21.4          19.4 V EW034G96
     K08W14D  C2008 11 21.14845 21 45 50.65 -13 29 06.7          19.2 V EW034G96
     K08W14D  C2008 11 21.14898 21 45 51.12 -13 29 08.9          19.3 V EW034G96
     K08W14D  C2008 11 21.14951 21 45 51.55 -13 29 11.2          19.4 V EW034G96
     K08W14D  C2008 11 21.15005 21 45 51.98 -13 29 13.0          19.8 V EW034G96

Observer details:
G96 Mt. Lemmon Survey.  Observer A. R. Gibbs.  Measurers E. C. Beshore,
    A. Boattini, G. J. Garradd, A. R. Gibbs, A. D. Grauer, R. E. Hill,
    R. A. Kowalski, S. M. Larson, R. H. McNaught.  1.5-m reflector + CCD.

Orbital elements:
2008 WD14                                                Earth MOID = 0.0023 AU
Epoch 2008 Nov. 30.0 TT = JDT 2454800.5                 MPC
M  13.73324              (2000.0)            P               Q
n   0.59045253     Peri.  163.26905     +0.76674720     -0.63798836
a   1.4071683      Node   236.59004     +0.57877848     +0.73500961
e   0.3068921      Incl.    4.89304     +0.27769442     +0.22963389
P   1.67           H   23.2           G   0.15           U   9
Residuals in seconds of arc
081121 G96  0.3-  0.2-    081121 G96  0.4-  0.4-    081121 G96  0.9-  0.1-
081121 G96  0.5-  0.1-    081121 G96  0.2-  0.1-    081121 G96  0.3-  0.2-
081121 G96  0.8-  0.4-    081121 G96  0.2-  0.1+    081121 G96  0.4-  0.4-
081121 G96  0.9-  0.1-    081121 G96  0.6-  0.0     081121 G96  0.5-  0.0

Ephemeris:
2008 WD14                a,e,i = 1.41, 0.31, 5                   q = 0.9753
Date    TT    R. A. (2000) Decl.     Delta      r     Elong.  Phase     V
2008 11 20    21 30.33   -12 10.2    0.0454   0.984    83.1    94.3    19.8
2008 11 30    01 08.67   -22 13.2    0.0325   1.000   115.1    63.2    18.0
2008 12 10    04 17.86   -15 34.0    0.0526   1.025   139.6    38.5    18.4
2008 12 20    05 20.06   -09 24.9    0.0868   1.057   146.2    31.2    19.3
2008 12 30    05 46.07   -05 13.7    0.127    1.094   149.0    27.6    20.1
2009 01 09    06 01.36   -01 46.9    0.173    1.135   149.2    26.4    20.9
2009 01 19    06 13.43   +01 14.4    0.226    1.179   146.9    27.1    21.5

Timothy B. Spahr             (C) Copyright 2008 MPC           M.P.E.C. 2008-W34

Read MPEC 2008-W33 Read MPEC 2008-W35


Our Web policy. Index to the CBAT/MPC/ICQ pages.


Valid HTML 4.01!